Hourly Data Report for October 04, 2015

All times are specified in Local Standard Time (LST). Add 1 hour to adjust for Daylight Saving Time where and when it is observed.

FREDERICTON
NEW BRUNSWICK

45°52'08.000" N
66°32'14.000" W
20.70 m
8101505
71700
YFC

Download Data

Hourly Data (October 2015)
Hourly Data Report for October 4, 2015
Temp Definition
°C
Dew Point Temp Definition
°C
Rel Hum Definition
%
Wind Dir Definition
10's deg

Wind Spd Definition
km/h
Visibility Definition
km
Stn Press Definition
kPa
Hmdx Definition


Wind Chill Definition


Weather Definition


TIME
00:00 Legend Double Dagger 2.6 1.6 93 31 8 16.1 103.25     LegendNANA
01:00 Legend Double Dagger 2.5 1.4 92 32 9 16.1 103.18     LegendNANA
02:00 Legend Double Dagger 2.2 0.9 91 32 9 16.1 103.16     LegendNANA
03:00 Legend Double Dagger 0.8 -0.1 94 35 8 16.1 103.14     LegendNANA
04:00 Legend Double Dagger -0.5 -1.2 95 LegendMM 4 16.1 103.11   -2 LegendNANA
05:00 Legend Double Dagger -0.3 -0.9 96 30 5 16.1 103.12   -2 LegendNANA
06:00 Legend Double Dagger -1.6 -2.2 96 LegendMM 4 16.1 103.10   -3 LegendNANA
07:00 Legend Double Dagger 0.6 -0.6 92 32 9 16.1 103.14     LegendNANA
08:00 Legend Double Dagger 4.1 1.0 80 36 9 16.1 103.16     LegendNANA
09:00 Legend Double Dagger 6.7 1.6 70 5 8 16.1 103.14     LegendNANA
10:00 Legend Double Dagger 9.8 2.1 58 6 9 16.1 103.11     LegendNANA
11:00 Legend Double Dagger 11.3 2.7 55 12 9 16.1 103.08     LegendNANA
12:00 Legend Double Dagger 12.4 2.3 50 3 5 16.1 102.99     LegendNANA
13:00 Legend Double Dagger 14.1 2.1 44 LegendMM 5 16.1 102.89     LegendNANA
14:00 Legend Double Dagger 15.0 1.7 40 LegendMM 4 16.1 102.79     LegendNANA
15:00 Legend Double Dagger 15.9 2.3 40 9 11 16.1 102.72     LegendNANA
16:00 Legend Double Dagger 16.0 3.4 43 12 5 16.1 102.67     LegendNANA
17:00 Legend Double Dagger 14.4 5.0 53 8 9 16.1 102.64     LegendNANA
18:00 Legend Double Dagger 11.2 6.6 73 12 4 16.1 102.61     LegendNANA
19:00 Legend Double Dagger 8.7 6.5 86 33 4 16.1 102.60     LegendNANA
20:00 Legend Double Dagger 7.1 5.9 92 35 4 16.1 102.61     LegendNANA
21:00 Legend Double Dagger 7.2 5.5 89 2 5 16.1 102.60     LegendNANA
22:00 Legend Double Dagger 5.5 4.5 93 35 4 16.1 102.60     LegendNANA
23:00 Legend Double Dagger 4.3 3.6 95 34 4 16.1 102.56     LegendNANA

Notes on Data Quality.

Legend

  • E = Estimated
  • M = Missing
  • NA = Not Available
  • ‡ = Partner data that is not subject to review by the National Climate Archives
Date modified: